Hourly Data Report for July 31, 2013

All times are specified in Local Standard Time (LST). Add 1 hour to adjust for Daylight Saving Time where and when it is observed.

VICTORIA INTL A
BRITISH COLUMBIA

48°38'50.000" N
123°25'33.000" W
19.50 m
1018621
71799
YYJ

Download Data

Hourly Data (July 2013)
Hourly Data Report for July 31, 2013
Temp Definition
°C
Dew Point Temp Definition
°C
Rel Hum Definition
%
Wind Dir Definition
10's deg

Wind Spd Definition
km/h
Visibility Definition
km
Stn Press Definition
kPa
Hmdx Definition


Wind Chill Definition


Weather Definition


TIME
00:00 Legend Double Dagger 12.6 11.7 94 2 5 48.3 101.70     LegendNANA
01:00 Legend Double Dagger 12.9 11.8 93 6 5 32.2 101.71     Mainly Clear
02:00 Legend Double Dagger 11.4 10.2 92 21 1 32.2 101.72     LegendNANA
03:00 Legend Double Dagger 11.4 10.9 97 24 1 32.2 101.72     LegendNANA
04:00 Legend Double Dagger 11.4 10.9 97 10 3 48.3 101.73     Clear
05:00 Legend Double Dagger 11.9 11.3 96 6 4 48.3 101.73     LegendNANA
06:00 Legend Double Dagger 11.5 10.9 96 14 2 48.3 101.74     LegendNANA
07:00 Legend Double Dagger 12.6 12.1 97 12 9 0.4 101.76     Fog
08:00 Legend Double Dagger 14.7 12.2 85 12 6 32.2 101.75     LegendNANA
09:00 Legend Double Dagger 16.0 12.2 78 9 10 48.3 101.73     LegendNANA
10:00 Legend Double Dagger 15.1 11.7 80 13 12 48.3 101.70     Mostly Cloudy
11:00 Legend Double Dagger 16.1 11.7 75 13 14 48.3 101.67     LegendNANA
12:00 Legend Double Dagger 17.5 12.0 70 13 13 48.3 101.59     LegendNANA
13:00 Legend Double Dagger 17.4 11.9 70 12 14 48.3 101.55     Mostly Cloudy
14:00 Legend Double Dagger 17.8 11.9 68 12 19 48.3 101.49     LegendNANA
15:00 Legend Double Dagger 16.3 11.9 75 12 17 48.3 101.45     LegendNANA
16:00 Legend Double Dagger 14.6 11.8 83 13 22 48.3 101.41     Mostly Cloudy
17:00 Legend Double Dagger 14.4 11.8 84 12 23 48.3 101.34     LegendNANA
18:00 Legend Double Dagger 13.5 11.7 89 12 28 48.3 101.37     LegendNANA
19:00 Legend Double Dagger 12.8 11.4 91 12 22 48.3 101.41     Mostly Cloudy
20:00 Legend Double Dagger 14.0 11.7 86 7 11 48.3 101.35     LegendNANA
21:00 Legend Double Dagger 14.0 11.9 87 7 20 48.3 101.43     LegendNANA
22:00 Legend Double Dagger 15.2 11.8 80 14 13 48.3 101.44     Cloudy
23:00 Legend Double Dagger 14.4 11.4 82 26 7 48.3 101.42     LegendNANA

Notes on Data Quality.

Legend

  • E = Estimated
  • M = Missing
  • NA = Not Available
  • ‡ = Partner data that is not subject to review by the National Climate Archives
Date modified: